| time (UTC) | temp C | wind direction | speed KPH | gust KPH | rain 1hr cm | rain 24hr cm | rain mn cm | humidity % | barometer mb |
| 20260505054834 | 17 | 232 | 3.2 | 3.2 | 0.00 | 0.00 | 0.00 | 73 | 1007.8 |
| 20260505054331 | 17 | 98 | 0.0 | 4.8 | 0.00 | 0.00 | 0.00 | 72 | 1007.6 |
| 20260505053829 | 17 | 307 | 0.0 | 6.4 | 0.00 | 0.00 | 0.00 | 71 | 1007.8 |
| 20260505053326 | 17 | 146 | 1.6 | 4.8 | 0.00 | 0.00 | 0.00 | 72 | 1007.8 |
| 20260505052822 | 17 | 102 | 3.2 | 6.4 | 0.00 | 0.00 | 0.00 | 71 | 1007.9 |
| 20260505052319 | 17 | 182 | 6.4 | 6.4 | 0.00 | 0.00 | 0.00 | 71 | 1008.1 |
| 20260505051816 | 18 | 239 | 0.0 | 4.8 | 0.00 | 0.00 | 0.00 | 71 | 1008.2 |
| 20260505051314 | 17 | 159 | 4.8 | 6.4 | 0.00 | 0.00 | 0.00 | 71 | 1008.1 |
| 20260505050812 | 17 | 180 | 0.0 | 3.2 | 0.00 | 0.00 | 0.00 | 71 | 1008.1 |
| 20260505050310 | 18 | 309 | 0.0 | 6.4 | 0.00 | 0.00 | 0.00 | 70 | 1008.2 |
| 20260505041740 | 18 | 173 | 3.2 | 8.0 | 0.00 | 0.00 | 0.00 | 67 | 1008.5 |
| 20260505041237 | 18 | 79 | 3.2 | 8.0 | 0.00 | 0.00 | 0.00 | 67 | 1008.7 |
| 20260505040735 | 18 | 155 | 3.2 | 11.3 | 0.00 | 0.00 | 0.00 | 67 | 1008.4 |
| 20260505040232 | 18 | 147 | 4.8 | 4.8 | 0.00 | 0.00 | 0.00 | 67 | 1008.7 |
| 20260505035729 | 18 | 58 | 3.2 | 8.0 | 0.00 | 0.00 | 0.00 | 67 | 1008.4 |
| 20260505035224 | 19 | 159 | 3.2 | 8.0 | 0.00 | 0.00 | 0.00 | 65 | 1008.7 |
| 20260505034721 | 19 | 230 | 9.7 | 9.7 | 0.00 | 0.00 | 0.00 | 65 | 1008.7 |
| 20260505034218 | 19 | 188 | 3.2 | 4.8 | 0.00 | 0.00 | 0.00 | 66 | 1008.6 |
| 20260505033715 | 19 | 186 | 6.4 | 16.1 | 0.00 | 0.00 | 0.00 | 64 | 1008.8 |
| 20260505033213 | 20 | 121 | 1.6 | 6.4 | 0.00 | 0.00 | 0.00 | 65 | 1008.6 |
| 20260505032711 | 20 | 147 | 1.6 | 9.7 | 0.00 | 0.00 | 0.00 | 63 | 1008.6 |
| 20260505032206 | 20 | 237 | 3.2 | 11.3 | 0.00 | 0.00 | 0.00 | 65 | 1008.5 |
| 20260505031704 | 20 | 180 | 3.2 | 4.8 | 0.00 | 0.00 | 0.00 | 64 | 1008.5 |
| 20260505031200 | 20 | 177 | 6.4 | 8.0 | 0.00 | 0.00 | 0.00 | 63 | 1008.4 |
| 20260505030657 | 20 | 17 | 0.0 | 6.4 | 0.00 | 0.00 | 0.00 | 63 | 1008.6 |
| 20260505030153 | 20 | 96 | 3.2 | 6.4 | 0.00 | 0.00 | 0.00 | 63 | 1008.3 |
| 20260505025649 | 20 | 213 | 6.4 | 11.3 | 0.00 | 0.00 | 0.00 | 63 | 1008.2 |
| 20260505025147 | 20 | 82 | 3.2 | 8.0 | 0.00 | 0.00 | 0.00 | 63 | 1008.2 |
| 20260505024645 | 20 | 57 | 1.6 | 8.0 | 0.00 | 0.00 | 0.00 | 62 | 1008.1 |
| 20260505024142 | 20 | 135 | 0.0 | 9.7 | 0.00 | 0.00 | 0.00 | 61 | 1007.9 |
| 20260505023639 | 20 | 147 | 3.2 | 8.0 | 0.00 | 0.00 | 0.00 | 61 | 1008.1 |
| 20260505023136 | 20 | 156 | 6.4 | 9.7 | 0.00 | 0.00 | 0.00 | 61 | 1008.0 |
| 20260505022634 | 20 | 212 | 1.6 | 6.4 | 0.00 | 0.00 | 0.00 | 61 | 1007.8 |
| 20260505022131 | 20 | 320 | 0.0 | 6.4 | 0.00 | 0.00 | 0.00 | 61 | 1007.8 |
| 20260505021627 | 21 | 159 | 3.2 | 4.8 | 0.00 | 0.00 | 0.00 | 59 | 1007.6 |
| 20260505021124 | 21 | 157 | 4.8 | 8.0 | 0.00 | 0.00 | 0.00 | 59 | 1007.4 |
| 20260505020620 | 21 | 152 | 6.4 | 8.0 | 0.00 | 0.00 | 0.00 | 58 | 1007.4 |
| 20260505020116 | 21 | 165 | 8.0 | 11.3 | 0.00 | 0.00 | 0.00 | 58 | 1007.2 |
| 20260505015613 | 21 | 277 | 1.6 | 6.4 | 0.00 | 0.00 | 0.00 | 59 | 1007.2 |
| 20260505015110 | 21 | 173 | 3.2 | 6.4 | 0.00 | 0.00 | 0.00 | 57 | 1007.0 |
| 20260505014607 | 21 | 204 | 3.2 | 9.7 | 0.00 | 0.00 | 0.00 | 57 | 1007.0 |
| 20260505014104 | 21 | 177 | 3.2 | 8.0 | 0.00 | 0.00 | 0.00 | 57 | 1006.9 |
| 20260505013601 | 21 | 228 | 12.9 | 16.1 | 0.00 | 0.00 | 0.00 | 56 | 1006.9 |
| 20260505013058 | 22 | 180 | 3.2 | 16.1 | 0.00 | 0.00 | 0.00 | 57 | 1007.1 |
| 20260505012556 | 22 | 191 | 3.2 | 8.0 | 0.00 | 0.00 | 0.00 | 56 | 1007.0 |
| 20260505012053 | 22 | 128 | 3.2 | 4.8 | 0.00 | 0.00 | 0.00 | 57 | 1007.0 |
| 20260505011548 | 22 | 137 | 3.2 | 8.0 | 0.00 | 0.00 | 0.00 | 56 | 1007.1 |
| 20260505011046 | 22 | 158 | 4.8 | 4.8 | 0.00 | 0.00 | 0.00 | 58 | 1007.0 |
| 20260505010541 | 22 | 212 | 3.2 | 6.4 | 0.00 | 0.00 | 0.00 | 57 | 1006.8 |
| 20260505010038 | 22 | 194 | 3.2 | 9.7 | 0.00 | 0.00 | 0.00 | 57 | 1006.8 |
| 20260505005534 | 22 | 226 | 0.0 | 8.0 | 0.00 | 0.00 | 0.00 | 56 | 1006.8 |
| 20260505005032 | 22 | 107 | 1.6 | 8.0 | 0.00 | 0.00 | 0.00 | 57 | 1006.7 |
| 20260505004529 | 22 | 171 | 0.0 | 6.4 | 0.00 | 0.00 | 0.00 | 56 | 1006.7 |
| 20260505004025 | 23 | 139 | 3.2 | 6.4 | 0.00 | 0.00 | 0.00 | 55 | 1006.7 |
| 20260505003523 | 23 | 171 | 0.0 | 9.7 | 0.00 | 0.00 | 0.00 | 54 | 1006.6 |
| 20260505003020 | 23 | 191 | 3.2 | 8.0 | 0.00 | 0.00 | 0.00 | 54 | 1006.7 |
| 20260505002521 | 23 | 144 | 0.0 | 9.7 | 0.00 | 0.00 | 0.00 | 52 | 1006.7 |
| 20260505002020 | 23 | 246 | 4.8 | 9.7 | 0.00 | 0.00 | 0.00 | 52 | 1006.6 |
| 20260505001517 | 24 | 137 | 1.6 | 4.8 | 0.00 | 0.00 | 0.00 | 50 | 1006.7 |
| 20260505001014 | 24 | 187 | 3.2 | 12.9 | 0.00 | 0.00 | 0.00 | 50 | 1006.6 |
| 20260505000511 | 24 | 232 | 3.2 | 17.7 | 0.00 | 0.00 | 0.00 | 50 | 1006.5 |
| 20260505000009 | 24 | 191 | 3.2 | 6.4 | 0.00 | 0.00 | 0.00 | 50 | 1006.7 |
| 20260504235505 | 25 | 245 | 3.2 | 8.0 | 0.00 | 0.00 | 0.00 | 50 | 1006.7 |
| 20260504235002 | 25 | 219 | 3.2 | 4.8 | 0.00 | 0.00 | 0.00 | 49 | 1006.6 |
| 20260504234459 | 25 | 231 | 6.4 | 17.7 | 0.00 | 0.00 | 0.00 | 49 | 1006.6 |
| 20260504233955 | 25 | 154 | 3.2 | 19.3 | 0.00 | 0.00 | 0.00 | 48 | 1006.8 |
| 20260504233451 | 25 | 255 | 11.3 | 22.5 | 0.00 | 0.00 | 0.00 | 47 | 1006.6 |
| 20260504232948 | 25 | 237 | 14.5 | 22.5 | 0.00 | 0.00 | 0.00 | 47 | 1006.5 |
| 20260504232445 | 25 | 237 | 11.3 | 27.4 | 0.00 | 0.00 | 0.00 | 47 | 1006.8 |
| 20260504231943 | 25 | 196 | 11.3 | 20.9 | 0.00 | 0.00 | 0.00 | 47 | 1006.6 |
| 20260504231439 | 25 | 237 | 12.9 | 32.2 | 0.00 | 0.00 | 0.00 | 47 | 1006.7 |
| 20260504230935 | 26 | 230 | 8.0 | 12.9 | 0.00 | 0.00 | 0.00 | 46 | 1006.7 |
| 20260504230432 | 26 | 229 | 9.7 | 19.3 | 0.00 | 0.00 | 0.00 | 47 | 1006.8 |
| 20260504225931 | 25 | 250 | 6.4 | 20.9 | 0.00 | 0.00 | 0.00 | 46 | 1006.7 |
| 20260504225427 | 26 | 250 | 6.4 | 20.9 | 0.00 | 0.00 | 0.00 | 45 | 1007.0 |
| 20260504224925 | 26 | 259 | 17.7 | 19.3 | 0.00 | 0.00 | 0.00 | 44 | 1006.7 |
| 20260504224421 | 26 | 260 | 3.2 | 30.6 | 0.00 | 0.00 | 0.00 | 44 | 1006.5 |
| 20260504223919 | 26 | 172 | 8.0 | 20.9 | 0.00 | 0.00 | 0.00 | 44 | 1006.5 |
| 20260504223414 | 26 | 214 | 3.2 | 20.9 | 0.00 | 0.00 | 0.00 | 44 | 1006.7 |
| 20260504222910 | 26 | 248 | 17.7 | 24.1 | 0.00 | 0.00 | 0.00 | 44 | 1006.5 |
| 20260504222408 | 26 | 240 | 11.3 | 30.6 | 0.00 | 0.00 | 0.00 | 44 | 1006.6 |
| 20260504221906 | 26 | 269 | 3.2 | 22.5 | 0.00 | 0.00 | 0.00 | 43 | 1006.4 |
| 20260504221402 | 26 | 327 | 9.7 | 24.1 | 0.00 | 0.00 | 0.00 | 44 | 1006.4 |
| 20260504220859 | 26 | 204 | 6.4 | 14.5 | 0.00 | 0.00 | 0.00 | 43 | 1006.5 |
| 20260504220356 | 26 | 222 | 8.0 | 17.7 | 0.00 | 0.00 | 0.00 | 44 | 1006.3 |
| 20260504215853 | 27 | 221 | 4.8 | 17.7 | 0.00 | 0.00 | 0.00 | 44 | 1006.7 |
| 20260504215349 | 26 | 260 | 12.9 | 24.1 | 0.00 | 0.00 | 0.00 | 45 | 1006.4 |
| 20260504214846 | 27 | 257 | 9.7 | 11.3 | 0.00 | 0.00 | 0.00 | 44 | 1006.7 |
| 20260504214343 | 27 | 279 | 6.4 | 14.5 | 0.00 | 0.00 | 0.00 | 45 | 1006.4 |
| 20260504213839 | 27 | 238 | 9.7 | 17.7 | 0.00 | 0.00 | 0.00 | 43 | 1006.6 |
| 20260504213335 | 27 | 255 | 8.0 | 19.3 | 0.00 | 0.00 | 0.00 | 44 | 1006.7 |
| 20260504212833 | 27 | 281 | 8.0 | 22.5 | 0.00 | 0.00 | 0.00 | 42 | 1006.7 |
| 20260504212328 | 27 | 266 | 4.8 | 14.5 | 0.00 | 0.00 | 0.00 | 43 | 1006.8 |
| 20260504211827 | 27 | 214 | 11.3 | 19.3 | 0.00 | 0.00 | 0.00 | 43 | 1006.7 |
| 20260504211328 | 27 | 115 | 6.4 | 16.1 | 0.00 | 0.00 | 0.00 | 43 | 1006.8 |
| 20260504210825 | 26 | 299 | 6.4 | 32.2 | 0.00 | 0.00 | 0.00 | 44 | 1006.8 |
| 20260504210322 | 27 | 254 | 4.8 | 30.6 | 0.00 | 0.00 | 0.00 | 43 | 1007.2 |
| 20260504205819 | 27 | 272 | 17.7 | 20.9 | 0.00 | 0.00 | 0.00 | 42 | 1007.1 |
| 20260504205317 | 27 | 237 | 12.9 | 14.5 | 0.00 | 0.00 | 0.00 | 42 | 1007.0 |
| 20260504204815 | 27 | 85 | 4.8 | 27.4 | 0.00 | 0.00 | 0.00 | 43 | 1007.3 |
| 20260504204313 | 26 | 243 | 12.9 | 35.4 | 0.00 | 0.00 | 0.00 | 46 | 1007.4 |
| 20260504203812 | 27 | 276 | 6.4 | 24.1 | 0.00 | 0.00 | 0.00 | 44 | 1007.4 |
| 20260504203309 | 27 | 152 | 3.2 | 17.7 | 0.00 | 0.00 | 0.00 | 42 | 1007.5 |
| 20260504202804 | 27 | 172 | 3.2 | 17.7 | 0.00 | 0.00 | 0.00 | 44 | 1007.8 |
| 20260504202302 | 27 | 229 | 3.2 | 20.9 | 0.00 | 0.00 | 0.00 | 44 | 1007.8 |
| 20260504201758 | 27 | 166 | 6.4 | 19.3 | 0.00 | 0.00 | 0.00 | 42 | 1007.9 |
| 20260504201255 | 27 | 255 | 24.1 | 32.2 | 0.00 | 0.00 | 0.00 | 41 | 1007.9 |
| 20260504200754 | 27 | 313 | 3.2 | 16.1 | 0.00 | 0.00 | 0.00 | 44 | 1007.8 |
| 20260504200249 | 26 | 242 | 24.1 | 35.4 | 0.00 | 0.00 | 0.00 | 43 | 1008.1 |
| 20260504195746 | 26 | 252 | 12.9 | 46.7 | 0.00 | 0.00 | 0.00 | 43 | 1008.2 |
| 20260504195241 | 27 | 194 | 6.4 | 17.7 | 0.00 | 0.00 | 0.00 | 43 | 1007.9 |
| 20260504194739 | 27 | 249 | 12.9 | 19.3 | 0.00 | 0.00 | 0.00 | 44 | 1008.1 |
| 20260504194235 | 26 | 258 | 11.3 | 27.4 | 0.00 | 0.00 | 0.00 | 43 | 1008.4 |
| 20260504193731 | 27 | 222 | 11.3 | 19.3 | 0.00 | 0.00 | 0.00 | 43 | 1008.3 |
| 20260504193229 | 27 | 225 | 12.9 | 19.3 | 0.00 | 0.00 | 0.00 | 43 | 1008.3 |
| 20260504192727 | 26 | 242 | 8.0 | 19.3 | 0.00 | 0.00 | 0.00 | 44 | 1008.5 |
| 20260504192225 | 26 | 271 | 8.0 | 24.1 | 0.00 | 0.00 | 0.00 | 45 | 1008.4 |
| 20260504191723 | 26 | 275 | 16.1 | 33.8 | 0.00 | 0.00 | 0.00 | 44 | 1008.6 |
| 20260504191220 | 26 | 277 | 11.3 | 24.1 | 0.00 | 0.00 | 0.00 | 44 | 1008.5 |
| 20260504190715 | 26 | 227 | 9.7 | 24.1 | 0.00 | 0.00 | 0.00 | 44 | 1008.5 |
| 20260504190212 | 26 | 271 | 14.5 | 24.1 | 0.00 | 0.00 | 0.00 | 44 | 1008.4 |
| 20260504185708 | 26 | 244 | 12.9 | 24.1 | 0.00 | 0.00 | 0.00 | 44 | 1008.3 |
| 20260504185205 | 26 | 236 | 12.9 | 24.1 | 0.00 | 0.00 | 0.00 | 44 | 1008.6 |
| 20260504184701 | 26 | 299 | 9.7 | 17.7 | 0.00 | 0.00 | 0.00 | 44 | 1008.5 |
| 20260504184156 | 26 | 238 | 20.9 | 35.4 | 0.00 | 0.00 | 0.00 | 43 | 1008.5 |
| 20260504183653 | 26 | 251 | 16.1 | 22.5 | 0.00 | 0.00 | 0.00 | 45 | 1008.5 |
| 20260504183150 | 26 | 180 | 8.0 | 27.4 | 0.00 | 0.00 | 0.00 | 46 | 1008.5 |
| 20260504182648 | 26 | 205 | 9.7 | 22.5 | 0.00 | 0.00 | 0.00 | 45 | 1008.5 |
| 20260504182145 | 26 | 255 | 11.3 | 19.3 | 0.00 | 0.00 | 0.00 | 45 | 1008.4 |
| 20260504181643 | 25 | 253 | 9.7 | 22.5 | 0.00 | 0.00 | 0.00 | 45 | 1008.3 |
| 20260504181140 | 25 | 243 | 19.3 | 33.8 | 0.00 | 0.00 | 0.00 | 45 | 1008.6 |
| 20260504180639 | 26 | 208 | 8.0 | 14.5 | 0.00 | 0.00 | 0.00 | 44 | 1008.5 |
| 20260504180138 | 25 | 206 | 6.4 | 14.5 | 0.00 | 0.00 | 0.00 | 45 | 1008.5 |
| 20260504175634 | 25 | 245 | 17.7 | 35.4 | 0.00 | 0.00 | 0.00 | 45 | 1008.5 |
| 20260504175131 | 25 | 217 | 4.8 | 24.1 | 0.00 | 0.00 | 0.00 | 47 | 1008.7 |
| 20260504174630 | 25 | 54 | 8.0 | 22.5 | 0.00 | 0.00 | 0.00 | 45 | 1008.7 |
| 20260504174125 | 25 | 240 | 16.1 | 20.9 | 0.00 | 0.00 | 0.00 | 45 | 1008.9 |
| 20260504173623 | 25 | 230 | 16.1 | 32.2 | 0.00 | 0.00 | 0.00 | 46 | 1009.1 |
| 20260504173120 | 25 | 277 | 6.4 | 22.5 | 0.00 | 0.00 | 0.00 | 45 | 1008.8 |
| 20260504172616 | 25 | 239 | 17.7 | 32.2 | 0.00 | 0.00 | 0.00 | 47 | 1008.7 |
| 20260504172113 | 25 | 241 | 14.5 | 24.1 | 0.00 | 0.00 | 0.00 | 45 | 1008.9 |
| 20260504171609 | 25 | 250 | 14.5 | 24.1 | 0.00 | 0.00 | 0.00 | 45 | 1008.9 |
| 20260504171107 | 25 | 274 | 6.4 | 17.7 | 0.00 | 0.00 | 0.00 | 45 | 1008.9 |
| 20260504170602 | 24 | 245 | 16.1 | 27.4 | 0.00 | 0.00 | 0.00 | 47 | 1009.1 |
| 20260504150946 | 21 | 200 | 8.0 | 20.9 | 0.00 | 0.00 | 0.00 | 52 | 1009.9 |
| 20260504150443 | 21 | 239 | 14.5 | 17.7 | 0.00 | 0.00 | 0.00 | 53 | 1009.9 |
| 20260504140909 | 19 | 265 | 6.4 | 17.7 | 0.00 | 0.00 | 0.00 | 56 | 1010.7 |
| 20260504140405 | 20 | 235 | 14.5 | 19.3 | 0.00 | 0.00 | 0.00 | 56 | 1010.7 |
| 20260504130331 | 18 | 250 | 11.3 | 20.9 | 0.00 | 0.00 | 0.00 | 60 | 1010.9 |
| 20260504120254 | 16 | 199 | 6.4 | 20.9 | 0.00 | 0.00 | 0.00 | 64 | 1010.9 |
| 20260504110218 | 16 | 269 | 0.0 | 8.0 | 0.00 | 0.00 | 0.00 | 64 | 1010.7 |
| 20260504100142 | 17 | 245 | 9.7 | 9.7 | 0.00 | 0.00 | 0.00 | 61 | 1011.0 |
| 20260504090104 | 17 | 210 | 6.4 | 16.1 | 0.00 | 0.00 | 0.00 | 62 | 1011.1 |
| 20260504081535 | 16 | 219 | 3.2 | 6.4 | 0.00 | 0.00 | 0.00 | 64 | 1011.2 |
| 20260504081030 | 16 | 253 | 8.0 | 14.5 | 0.00 | 0.00 | 0.00 | 66 | 1011.2 |
| 20260504080527 | 16 | 335 | 1.6 | 3.2 | 0.00 | 0.00 | 0.00 | 67 | 1011.2 |